TimeMDT,TemperatureF,Dew PointF,Humidity,Sea Level PressureIn,VisibilityMPH,Wind Direction,Wind SpeedMPH,Gust SpeedMPH,PrecipitationIn,Events,Conditions,WindDirDegrees,DateUTC
12:53 AM,64.0,61.0,90,29.87,10.0,Calm,Calm,-,0.00,,Overcast,0,2013-09-09 06:53:00
1:53 AM,64.0,62.1,93,29.87,10.0,North,4.6,-,0.00,Rain,Light Rain,360,2013-09-09 07:53:00
2:53 AM,63.0,61.0,93,29.86,10.0,NNW,8.1,-,0.01,,Overcast,340,2013-09-09 08:53:00
3:53 AM,63.0,62.1,97,29.85,10.0,WNW,3.5,-,N/A,,Overcast,290,2013-09-09 09:53:00
4:53 AM,63.0,62.1,97,29.87,5.0,Calm,Calm,-,0.02,Rain,Light Rain,0,2013-09-09 10:53:00
5:30 AM,62.6,62.6,100,30.00,10.0,NW,5.8,-,0.03,Rain,Light Rain,320,2013-09-09 11:30:00
5:53 AM,62.1,61.0,96,29.88,10.0,NW,5.8,-,0.05,Rain,Light Rain,320,2013-09-09 11:53:00
6:23 AM,60.8,60.8,100,30.00,7.0,NW,12.7,-,0.02,Rain,Light Rain,320,2013-09-09 12:23:00
6:45 AM,60.8,60.8,100,30.01,3.0,NNW,9.2,-,0.08,Rain,Rain,330,2013-09-09 12:45:00
6:53 AM,61.0,60.1,97,29.89,4.0,NNW,6.9,-,0.09,Rain,Rain,330,2013-09-09 12:53:00
7:06 AM,60.8,60.8,100,30.02,3.0,NW,3.5,-,0.04,Rain,Rain,320,2013-09-09 13:06:00
7:49 AM,60.8,60.8,100,30.01,2.5,Calm,Calm,-,0.12,Rain,Rain,0,2013-09-09 13:49:00
7:53 AM,61.0,60.1,97,29.90,4.0,Calm,Calm,-,0.12,Rain,Light Rain,0,2013-09-09 13:53:00
8:53 AM,62.1,61.0,96,29.90,10.0,SE,4.6,-,0.03,Rain,Light Rain,130,2013-09-09 14:53:00
9:29 AM,62.6,60.8,94,30.03,10.0,SE,5.8,-,0.00,Rain,Light Rain,140,2013-09-09 15:29:00
9:53 AM,63.0,60.1,90,29.91,10.0,Calm,Calm,-,0.00,,Overcast,0,2013-09-09 15:53:00
10:53 AM,62.1,61.0,96,29.91,8.0,SE,3.5,-,0.03,Rain,Light Rain,130,2013-09-09 16:53:00
11:53 AM,63.0,61.0,93,29.91,10.0,SE,6.9,-,0.02,Rain,Light Rain,130,2013-09-09 17:53:00
12:38 PM,64.4,62.6,94,30.02,10.0,ESE,6.9,-,0.00,,Partly Cloudy,120,2013-09-09 18:38:00
12:53 PM,64.9,61.0,87,29.90,10.0,ESE,5.8,-,0.00,,Scattered Clouds,110,2013-09-09 18:53:00
1:05 PM,64.4,60.8,88,30.02,10.0,ESE,5.8,-,N/A,,Mostly Cloudy,110,2013-09-09 19:05:00
1:53 PM,66.0,60.1,81,29.89,10.0,ENE,5.8,-,N/A,,Overcast,70,2013-09-09 19:53:00
2:10 PM,66.2,60.8,83,30.01,9.0,East,6.9,-,0.00,Rain,Light Rain,100,2013-09-09 20:10:00
2:53 PM,66.9,60.1,79,29.88,10.0,East,10.4,-,0.00,,Overcast,100,2013-09-09 20:53:00
3:05 PM,66.2,60.8,83,30.00,10.0,East,10.4,-,N/A,,Overcast,90,2013-09-09 21:05:00
3:20 PM,66.2,60.8,83,30.00,10.0,East,10.4,-,N/A,,Overcast,80,2013-09-09 21:20:00
3:53 PM,64.9,61.0,87,29.88,10.0,ESE,6.9,-,0.00,Rain,Light Rain,110,2013-09-09 21:53:00
4:21 PM,64.4,60.8,88,30.00,9.0,East,4.6,-,0.01,Rain,Light Rain,80,2013-09-09 22:21:00
4:53 PM,64.9,61.0,87,29.86,10.0,ESE,8.1,-,0.01,Rain,Light Rain,120,2013-09-09 22:53:00
5:32 PM,64.4,62.6,94,29.98,10.0,SE,8.1,-,0.00,Rain,Light Rain,130,2013-09-09 23:32:00
5:42 PM,64.4,62.6,94,29.98,10.0,ESE,8.1,-,0.00,Rain,Light Rain,120,2013-09-09 23:42:00
5:49 PM,64.4,62.6,94,29.98,10.0,SE,8.1,-,0.00,Rain,Light Rain,130,2013-09-09 23:49:00
5:53 PM,64.0,62.1,93,29.86,10.0,SE,9.2,-,0.00,Rain,Light Rain,130,2013-09-09 23:53:00
6:00 PM,64.4,62.6,94,29.98,10.0,ESE,10.4,-,0.00,,Overcast,120,2013-09-10 00:00:00
6:10 PM,64.4,62.6,94,29.97,10.0,ESE,4.6,-,0.00,,Scattered Clouds,120,2013-09-10 00:10:00
6:53 PM,64.0,60.1,87,29.85,10.0,East,10.4,-,0.00,,Clear,90,2013-09-10 00:53:00
7:53 PM,64.0,59.0,84,29.85,10.0,SE,9.2,-,N/A,,Scattered Clouds,130,2013-09-10 01:53:00
8:53 PM,63.0,60.1,90,29.88,10.0,SE,6.9,-,0.00,Rain,Light Rain,130,2013-09-10 02:53:00
9:53 PM,63.0,60.1,90,29.91,10.0,SSE,5.8,-,0.01,Rain,Light Rain,150,2013-09-10 03:53:00
10:53 PM,63.0,61.0,93,29.91,10.0,ESE,5.8,-,0.01,Rain,Light Rain,120,2013-09-10 04:53:00
11:53 PM,61.0,59.0,93,29.91,10.0,ENE,5.8,-,0.02,Rain,Light Rain,70,2013-09-10 05:53:00